Regional Weather Roundup
Issued by NWS

Home | Current Version | Previous Version | Text Only | Print | Product List | Glossary On
Versions: 1 2 3 4 5 6 7 8 9 10 11 12 13 14 15 16 17 18 19 20 21 22 23 24 25 26 27 28 29 30 31 32 33 34 35 36 37 38 39 40 41 42 43 44 45 46 47 48 49 50
000
ASUS45 KREV 270110
RWRNV
NEVADA REGIONAL WEATHER ROUNDUP
NATIONAL WEATHER SERVICE RENO NV
600 PM PDT FRI MAY 26 2017

NOTE: "FAIR" INDICATES FEW OR NO CLOUDS BELOW 12,000 FEET WITH NO
SIGNIFICANT WEATHER AND/OR OBSTRUCTIONS TO VISIBILITY.

NVZ001-003-004-270200-
WESTERN NEVADA

CITY           SKY/WX    TMP DP  RH WIND       PRES   REMARKS
RENO           MOSUNNY   75  33  21 NW10      29.94R
CARSON CITY    FAIR      73  32  21 NW10      29.95S
MINDEN         FAIR      72  34  25 NW7       29.96R
FALLON         MOSUNNY   76  22  13 NE15      29.92R
LOVELOCK       PTSUNNY   73  24  16 N12       29.94R
HAWTHORNE      SUNNY     75  27  16 NW13G23   29.91R
$$

NVZ002-CAZ072-073-270200-
NORTHERN AND CENTRAL SIERRA

CITY           SKY/WX    TMP DP  RH WIND       PRES   REMARKS
S. LAKE TAHOE  MOSUNNY   62  36  37 NE9       30.03S
SQUAW VLY 8000   N/A     41  37  87 W5          N/A
SUSANVILLE     SUNNY     75  32  20 E5        29.95R
MAMMOTH LAKES  FAIR      69  15  12 W7G21     30.02R
BRIDGEPORT     FAIR      67  29  24 SW9       30.00S
$$

NVZ030-031-036-270200-
NORTHERN NEVADA

CITY           SKY/WX    TMP DP  RH WIND       PRES   REMARKS
ELKO           MOSUNNY   61  28  28 NW12      30.01R
WINNEMUCCA     SUNNY     69  30  23 N14       29.99R
WENDOVER       PTSUNNY   67  28  23 N15G24    29.95R
$$

NVZ035-037-270200-
CENTRAL NEVADA

CITY           SKY/WX    TMP DP  RH WIND       PRES   REMARKS
ELY            CLOUDY    63  22  20 NW14      29.97R
EUREKA           N/A     63  29  27 N20       29.99R
$$

NVZ013-014-270200-
SOUTH CENTRAL NEVADA

CITY           SKY/WX    TMP DP  RH WIND       PRES   REMARKS
TONOPAH        SUNNY     73  19  13 NW12G25   29.93S
$$

NVZ017-020-022-270200-
SOUTHERN NEVADA

CITY           SKY/WX    TMP DP  RH WIND       PRES   REMARKS
LAS VEGAS      SUNNY     89  22   8 S13G22    29.71S
N. LAS VEGAS   SUNNY     89  25  10 S14       29.71S
NELLIS AFB     SUNNY     90  28  11 S14       29.70S
HENDERSON      SUNNY     87  30  13 SW21G29   29.77R
MERCURY        SUNNY     83  28  13 SW12G22   29.80R
$$



USA.gov is the U.S. government's official web portal to all federal, state and local government web resources and services.